User: anonymous   Login
Location: Unspecified
(0.0000°N, 0.0000°E)
Time: 01:34:52
(UTC+00:00)
Language:

USA 267 - Orbit

View from above orbital plane
View from above orbital plane
View from above satellite
View from above satellite

Ground track
Ground track

The orbit data is extracted from the following two-line orbital elements,

1 41334U 16010A   17116.99164216 0.00000000  00000-0  00000-0 0    00
2 41334 122.9957 286.5308 0001000  73.7865 286.2135 13.41414520    03
Epoch (UTC): 26 April 2017 23:47:57
Eccentricity: 0.0001000
inclination: 122.9957°
perigee height: 1103 km
apogee height: 1105 km
right ascension of ascending node: 286.5308°
argument of perigee: 73.7865°
revolutions per day: 13.41414520
mean anomaly at epoch: 286.2135°
orbit number at epoch: 0

The dashed part of the orbit path shows where the satellite is in the earth's shadow,  

DLR